"2014-01-30",00:01,-1.526,-2.251,-1.509,-2.258,-2.76,-1.587,82.1,-4.6,-1.195,243.4,302.9,-62.9,-1.455,0.,247.,0,7999.,0.000,2.886671,100.3876,3.471,4.513,3.087,3.58,93.865,2.296,3.36,99.193,0.279,2.183,3.627,4.717,6.435,8.37,9.68,0.907,-999.,-999.,5.723,-10.173,-11.516,-12.522,-12.835,0.691,0.681,0.667,0.73,0.695,0.7,0.676,0.731,0.668,0.,0.
"2014-01-30",00:02,-1.414,-2.179,-1.385,-2.217,-2.766,-1.547,82.8,-4.538,-1.166,243.4,303.3,-63.3,-1.497,0.,246.8,0,7999.,0.000,2.906668,100.3832,4.292,5.825,4.696,6.48,86.332,3.171,5.19,87.389,0.279,2.176,3.621,4.717,6.441,8.373,9.673,0.907,-999.,-999.,5.733,-10.174,-11.516,-12.522,-12.833,0.691,0.681,0.667,0.73,0.695,0.7,0.676,0.731,0.668,0.,0.
"2014-01-30",00:03,-1.434,-2.183,-1.357,-2.184,-2.766,-1.484,82.3,-4.503,-1.195,243.6,303.4,-63.1,-1.289,0.,247.2,0,7999.,0.000,2.906668,100.3892,4.554,6.45,4.126,5.01,86.138,3.545,5.03,83.781,0.279,2.173,3.624,4.711,6.435,8.38,9.687,0.916,-999.,-999.,5.723,-10.174,-11.516,-12.523,-12.833,0.692,0.681,0.667,0.73,0.696,0.7,0.676,0.731,0.667,0.,0.
"2014-01-30",00:04,-1.549,-2.274,-1.364,-2.189,-2.77,-1.475,82.5,-4.481,-1.148,243.6,303.3,-63.0,-1.247,0.,247.3,0,7999.,0.000,2.933341,100.3861,3.921,4.575,3.282,4.21,75.959,2.611,3.28,87.11,0.279,2.17,3.627,4.717,6.435,8.376,9.676,0.907,-999.,-999.,5.733,-10.176,-11.517,-12.522,-12.83,0.691,0.681,0.667,0.73,0.695,0.7,0.676,0.731,0.668,0.,0.
"2014-01-30",00:05,-1.653,-2.323,-1.445,-2.206,-2.76,-1.497,82.1,-4.481,-1.195,243.5,303.,-62.8,-1.455,0.,247.1,0,7999.,0.000,2.906668,100.391,3.104,4.388,3.305,3.71,90.276,2.055,2.78,87.602,0.279,2.17,3.631,4.717,6.438,8.373,9.683,0.9,-999.,-999.,5.727,-10.182,-11.521,-12.523,-12.824,0.692,0.681,0.666,0.73,0.695,0.7,0.676,0.731,0.668,0.,0.
"2014-01-30",00:06,-1.529,-2.271,-1.436,-2.227,-2.763,-1.525,82.3,-4.486,-1.172,243.9,303.3,-62.7,-1.497,0.,247.4,0,7999.,0.000,2.926672,100.3892,3.746,4.513,3.62,5.,89.246,2.745,3.33,92.087,0.279,2.173,3.627,4.717,6.435,8.373,9.669,0.9,-999.,-999.,5.727,-10.18,-11.522,-12.523,-12.823,0.691,0.682,0.667,0.73,0.695,0.7,0.676,0.731,0.668,0.,0.
"2014-01-30",00:07,-1.447,-2.238,-1.45,-2.234,-2.763,-1.53,82.6,-4.435,-1.148,244.,303.8,-63.1,-1.414,0.,247.5,0,7999.,0.000,2.866668,100.3903,3.563,4.138,3.912,5.34,85.663,2.43,3.3,86.341,0.279,2.176,3.631,4.711,6.435,8.376,9.686,0.903,-999.,-999.,5.733,-10.182,-11.524,-12.522,-12.822,0.691,0.681,0.667,0.73,0.695,0.7,0.676,0.731,0.668,0.,0.
"2014-01-30",00:08,-1.44,-2.225,-1.451,-2.244,-2.757,-1.537,82.2,-4.378,-1.142,244.,303.9,-63.1,-1.455,0.,247.4,0,7999.,0.000,2.946669,100.3921,3.517,4.638,3.928,4.83,82.51,2.331,3.29,86.999,0.279,2.176,3.627,4.711,6.438,8.376,9.676,0.903,-999.,-999.,5.727,-10.179,-11.524,-12.522,-12.817,0.692,0.681,0.667,0.73,0.695,0.699,0.676,0.731,0.667,0.,0.
"2014-01-30",00:09,-1.486,-2.242,-1.501,-2.25,-2.76,-1.56,82.3,-4.344,-1.154,244.4,303.9,-62.7,-1.331,0.,247.8,0,7999.,0.000,2.960002,100.3939,3.517,4.325,2.831,3.72,88.467,2.265,3.01,90.286,0.279,2.17,3.631,4.714,6.438,8.376,9.68,0.903,-999.,-999.,5.736,-10.183,-11.525,-12.522,-12.813,0.691,0.681,0.667,0.73,0.695,0.7,0.676,0.731,0.667,0.,0.
"2014-01-30",00:10,-1.519,-2.255,-1.529,-2.278,-2.724,-1.6,81.9,-4.349,-1.178,244.8,304.3,-62.7,-1.331,0.,247.9,0,7999.,0.000,2.913338,100.3939,3.817,4.138,3.637,4.47,93.735,2.347,3.04,89.398,0.279,2.173,3.627,4.714,6.435,8.38,9.673,0.91,-999.,-999.,5.72,-10.182,-11.525,-12.522,-12.812,0.691,0.681,0.666,0.73,0.695,0.7,0.676,0.731,0.667,0.,0.
"2014-01-30",00:11,-1.388,-2.176,-1.433,-2.251,-2.678,-1.578,82.6,-4.309,-1.154,244.5,304.8,-63.5,-1.497,0.,247.9,0,7999.,0.000,2.986658,100.3983,4.679,5.2,3.755,4.7,87.411,3.288,4.25,93.09,0.279,2.176,3.627,4.711,6.435,8.373,9.68,0.903,-999.,-999.,5.72,-10.183,-11.527,-12.521,-12.807,0.691,0.682,0.667,0.73,0.696,0.7,0.676,0.731,0.667,0.,0.
"2014-01-30",00:12,-1.467,-2.219,-1.371,-2.192,-2.622,-1.52,82.7,-4.23,-1.13,244.2,304.8,-63.7,-1.497,0.,247.9,0,7999.,0.000,2.913338,100.3983,3.475,4.075,2.977,3.65,83.675,2.39,2.89,80.333,0.279,2.173,3.631,4.717,6.435,8.373,9.676,0.92,-999.,-999.,5.73,-10.183,-11.529,-12.521,-12.803,0.691,0.682,0.666,0.73,0.695,0.7,0.676,0.731,0.667,0.,0.
"2014-01-30",00:13,-1.535,-2.261,-1.375,-2.19,-2.596,-1.509,82.5,-4.218,-1.142,244.1,304.2,-63.2,-1.414,0.,248.,0,7999.,0.000,2.913338,100.3999,3.442,4.012,2.694,2.96,84.201,2.325,2.79,84.933,0.279,2.166,3.634,4.711,6.438,8.376,9.68,0.89,-999.,-999.,5.723,-10.184,-11.531,-12.519,-12.802,0.691,0.681,0.667,0.73,0.695,0.7,0.676,0.73,0.667,0.,0.
"2014-01-30",00:14,-1.64,-2.33,-1.436,-2.207,-2.632,-1.545,82.9,-4.281,-1.196,244.1,303.3,-62.3,-1.206,0.,248.2,0,7999.,0.000,2.899998,100.3942,3.421,3.763,3.517,4.52,83.519,2.289,3.45,77.6,0.279,2.17,3.624,4.714,6.435,8.376,9.683,0.91,-999.,-999.,5.723,-10.183,-11.534,-12.52,-12.797,0.691,0.681,0.666,0.73,0.695,0.7,0.676,0.732,0.667,0.,0.
"2014-01-30",00:15,-1.63,-2.327,-1.494,-2.248,-2.681,-1.577,82.3,-4.412,-1.231,244.1,302.6,-61.7,-0.998,0.,248.2,0,7999.,0.000,2.939999,100.3968,3.758,4.7,3.465,4.4,88.671,2.309,3.41,91.674,0.279,2.17,3.624,4.711,6.438,8.376,9.68,0.893,-999.,-999.,5.726,-10.183,-11.536,-12.52,-12.793,0.691,0.682,0.667,0.729,0.695,0.7,0.676,0.731,0.667,0.,0.
"2014-01-30",00:16,-1.683,-2.366,-1.531,-2.267,-2.685,-1.589,82.6,-4.469,-1.207,244.3,303.6,-62.6,-1.247,0.,248.,0,7999.,0.000,2.939999,100.394,3.046,3.7,3.51,4.55,84.682,2.185,3.79,78.553,0.279,2.173,3.637,4.711,6.435,8.38,9.676,0.9,-999.,-999.,5.72,-10.194,-11.537,-12.518,-12.793,0.691,0.681,0.667,0.729,0.695,0.7,0.676,0.73,0.667,0.,0.
"2014-01-30",00:17,-1.676,-2.356,-1.465,-2.259,-2.691,-1.575,82.3,-4.446,-1.19,244.4,302.9,-61.8,-1.123,0.,248.1,0,7999.,0.000,2.939999,100.3972,3.688,4.138,3.176,4.05,88.609,2.906,3.39,84.154,0.279,2.173,3.611,4.714,6.438,8.38,9.673,0.913,-999.,-999.,5.737,-10.192,-11.539,-12.518,-12.792,0.691,0.681,0.667,0.73,0.695,0.7,0.676,0.731,0.667,0.,0.
"2014-01-30",00:18,-1.611,-2.314,-1.422,-2.228,-2.73,-1.54,82.6,-4.475,-1.196,244.5,303.5,-62.3,-0.998,0.,248.1,0,7999.,0.000,2.920002,100.3936,3.458,3.95,2.771,3.58,86.,2.562,3.95,84.518,0.279,2.173,3.621,4.711,6.441,8.373,9.673,0.903,-999.,-999.,5.72,-10.196,-11.541,-12.515,-12.792,0.691,0.681,0.667,0.73,0.696,0.7,0.676,0.73,0.667,0.,0.
"2014-01-30",00:19,-1.722,-2.386,-1.503,-2.251,-2.743,-1.567,82.2,-4.464,-1.184,244.8,304.,-62.5,-0.998,0.,248.2,0,7999.,0.000,2.880001,100.3957,2.896,3.513,3.665,4.35,95.204,1.873,2.4,92.111,0.279,2.166,3.624,4.708,6.438,8.373,9.68,0.91,-999.,-999.,5.73,-10.194,-11.54,-12.514,-12.786,0.692,0.681,0.666,0.73,0.695,0.7,0.676,0.731,0.664,0.,0.
"2014-01-30",00:20,-1.716,-2.405,-1.581,-2.295,-2.756,-1.611,82.5,-4.435,-1.196,244.3,303.2,-62.1,-1.247,0.,248.,0,7999.,0.000,2.880001,100.3953,3.042,4.2,2.881,3.68,90.985,2.076,2.68,91.553,0.279,2.173,3.614,4.711,6.438,8.373,9.686,0.887,-999.,-999.,5.716,-10.206,-11.541,-12.513,-12.784,0.691,0.681,0.667,0.729,0.695,0.7,0.676,0.731,0.664,0.,0.
"2014-01-30",00:21,-1.732,-2.415,-1.581,-2.342,-2.757,-1.627,82.4,-4.469,-1.172,244.4,302.7,-61.6,-1.289,0.,248.,0,7999.,0.000,2.880001,100.3919,2.871,3.763,3.095,4.16,91.537,2.186,3.41,91.133,0.279,2.173,3.624,4.701,6.438,8.376,9.683,0.903,-999.,-999.,5.727,-10.203,-11.54,-12.514,-12.781,0.691,0.682,0.666,0.729,0.695,0.7,0.676,0.731,0.664,0.,0.
"2014-01-30",00:22,-1.653,-2.366,-1.598,-2.341,-2.753,-1.649,82.3,-4.481,-1.178,245.,303.9,-62.2,-1.331,0.,247.9,0,7999.,0.000,2.899998,100.3926,4.117,5.263,3.245,4.47,89.221,3.034,4.36,100.729,0.279,2.17,3.621,4.711,6.441,8.376,9.676,0.9,-999.,-999.,5.72,-10.201,-11.541,-12.512,-12.777,0.691,0.681,0.667,0.729,0.695,0.7,0.676,0.731,0.664,0.,0.
"2014-01-30",00:23,-1.444,-2.215,-1.539,-2.322,-2.753,-1.637,82.7,-4.441,-1.154,244.6,303.8,-62.5,-1.414,0.,248.,0,7999.,0.000,2.980012,100.3905,4.475,5.638,3.518,4.22,96.733,3.174,3.97,102.021,0.279,2.17,3.618,4.708,6.435,8.38,9.669,0.903,-999.,-999.,5.733,-10.2,-11.54,-12.512,-12.77,0.691,0.681,0.666,0.729,0.695,0.7,0.676,0.731,0.664,0.,0.
"2014-01-30",00:24,-1.503,-2.242,-1.529,-2.281,-2.724,-1.601,82.5,-4.407,-1.124,245.,304.1,-62.4,-1.497,0.,247.9,0,7999.,0.000,2.920002,100.3925,3.208,4.263,3.64,4.15,90.662,2.185,2.93,89.967,0.279,2.163,3.618,4.711,6.441,8.373,9.676,0.897,-999.,-999.,5.72,-10.201,-11.541,-12.512,-12.77,0.691,0.681,0.666,0.729,0.695,0.7,0.675,0.731,0.664,0.,0.
"2014-01-30",00:25,-1.607,-2.307,-1.59,-2.33,-2.685,-1.634,82.7,-4.395,-1.154,244.6,303.4,-62.0,-1.372,0.,248.,0,7999.,0.000,2.906668,100.3907,3.313,3.7,3.836,4.87,91.284,2.053,2.43,88.807,0.279,2.17,3.624,4.698,6.441,8.376,9.673,0.877,-999.,-999.,5.727,-10.207,-11.544,-12.512,-12.771,0.691,0.681,0.666,0.729,0.695,0.7,0.676,0.731,0.664,0.,0.
"2014-01-30",00:26,-1.63,-2.317,-1.508,-2.281,-2.688,-1.611,82.6,-4.424,-1.166,244.7,303.1,-61.7,-1.455,0.,248.,0,7999.,0.000,2.853328,100.3932,3.513,4.2,3.361,4.36,94.204,2.659,3.71,93.171,0.279,2.166,3.608,4.704,6.438,8.376,9.68,0.893,-999.,-999.,5.723,-10.208,-11.544,-12.511,-12.764,0.691,0.682,0.666,0.729,0.695,0.7,0.675,0.731,0.664,0.,0.
"2014-01-30",00:27,-1.591,-2.294,-1.535,-2.277,-2.711,-1.607,82.6,-4.412,-1.148,244.9,303.9,-62.3,-1.289,0.,248.1,0,7999.,0.000,2.853328,100.3951,3.313,4.45,2.961,4.34,98.338,2.267,3.09,94.081,0.279,2.17,3.621,4.698,6.438,8.373,9.676,0.877,-999.,-999.,5.713,-10.206,-11.549,-12.507,-12.76,0.691,0.682,0.666,0.729,0.695,0.7,0.676,0.731,0.664,0.,0.
"2014-01-30",00:28,-1.519,-2.258,-1.545,-2.3,-2.721,-1.629,82.9,-4.378,-1.142,245.3,304.4,-62.3,-1.372,0.,248.2,0,7999.,0.000,2.866668,100.3977,4.158,5.138,4.349,5.11,93.932,2.964,4.18,91.489,0.279,2.166,3.608,4.701,6.438,8.373,9.683,0.884,-999.,-999.,5.727,-10.208,-11.549,-12.507,-12.758,0.691,0.681,0.666,0.73,0.695,0.7,0.676,0.731,0.663,0.,0.
"2014-01-30",00:29,-1.493,-2.245,-1.446,-2.249,-2.691,-1.58,82.3,-4.298,-1.136,245.2,304.8,-62.8,-1.497,0.,248.2,0,7999.,0.000,2.786672,100.398,4.346,5.138,4.563,5.46,87.264,3.037,3.9,87.02,0.279,2.166,3.598,4.701,6.435,8.376,9.68,0.871,-999.,-999.,5.72,-10.21,-11.55,-12.51,-12.754,0.691,0.681,0.667,0.73,0.695,0.7,0.676,0.73,0.663,0.,0.
"2014-01-30",00:30,-1.411,-2.183,-1.432,-2.248,-2.616,-1.551,82.4,-4.224,-1.13,245.3,305.,-62.8,-1.414,0.,248.5,0,7999.,0.000,2.833343,100.3974,4.642,5.888,3.857,4.95,87.737,3.147,3.74,90.33,0.279,2.163,3.618,4.688,6.435,8.37,9.673,0.887,-999.,-999.,5.72,-10.21,-11.554,-12.508,-12.75,0.691,0.682,0.666,0.729,0.695,0.7,0.676,0.731,0.664,0.,0.
"2014-01-30",00:31,-1.395,-2.179,-1.428,-2.242,-2.603,-1.548,82.9,-4.207,-1.136,245.,304.6,-62.7,-1.414,0.,248.8,0,7999.,0.000,2.933341,100.397,4.263,5.638,3.247,3.76,87.795,2.767,4.21,93.259,0.279,2.163,3.601,4.694,6.441,8.37,9.68,0.884,-999.,-999.,5.727,-10.207,-11.555,-12.511,-12.749,0.691,0.681,0.666,0.729,0.695,0.7,0.676,0.731,0.663,0.,0.
"2014-01-30",00:32,-1.49,-2.225,-1.45,-2.251,-2.6,-1.565,82.1,-4.207,-1.118,245.4,305.2,-62.9,-1.497,0.,248.8,0,7999.,0.000,2.8,100.4017,3.517,4.45,4.107,5.5,87.916,2.438,3.38,86.402,0.279,2.163,3.605,4.691,6.435,8.376,9.68,0.877,-999.,-999.,5.733,-10.205,-11.557,-12.507,-12.749,0.691,0.681,0.666,0.729,0.695,0.7,0.675,0.731,0.663,0.,0.
"2014-01-30",00:33,-1.516,-2.258,-1.433,-2.246,-2.557,-1.578,82.6,-4.207,-1.142,245.4,304.7,-62.4,-1.455,0.,249.,0,7999.,0.000,2.840012,100.4015,3.708,4.388,3.761,4.31,93.121,2.726,3.85,91.475,0.279,2.157,3.601,4.691,6.438,8.37,9.673,0.874,-999.,-999.,5.73,-10.205,-11.56,-12.508,-12.747,0.691,0.681,0.666,0.729,0.695,0.7,0.676,0.731,0.663,0.,0.
"2014-01-30",00:34,-1.473,-2.232,-1.412,-2.239,-2.554,-1.534,82.2,-4.23,-1.148,245.6,304.3,-61.8,-1.247,0.,249.3,0,7999.,0.000,2.846658,100.4,3.762,4.325,3.143,3.79,92.8,2.791,3.45,94.201,0.279,2.15,3.611,4.698,6.435,8.37,9.673,0.887,-999.,-999.,5.72,-10.204,-11.56,-12.505,-12.74,0.691,0.681,0.666,0.729,0.695,0.701,0.676,0.73,0.663,0.,0.
"2014-01-30",00:35,-1.457,-2.222,-1.367,-2.208,-2.544,-1.515,82.5,-4.275,-1.148,245.5,304.,-61.6,-1.247,0.,249.6,0,7999.,0.000,2.886671,100.403,4.208,4.888,4.119,5.32,88.856,3.328,4.57,89.05,0.279,2.156,3.591,4.701,6.438,8.366,9.679,0.884,-999.,-999.,5.716,-10.205,-11.561,-12.502,-12.739,0.691,0.681,0.666,0.729,0.695,0.7,0.676,0.731,0.663,0.,0.
"2014-01-30",00:36,-1.454,-2.219,-1.423,-2.217,-2.564,-1.503,82.2,-4.344,-1.154,246.,304.2,-61.4,-1.164,0.,249.7,0,7999.,0.000,2.819997,100.4004,3.596,4.263,3.77,4.85,83.598,2.658,3.38,89.402,0.279,2.153,3.581,4.684,6.435,8.373,9.673,0.88,-999.,-999.,5.72,-10.204,-11.565,-12.501,-12.736,0.691,0.681,0.666,0.729,0.695,0.7,0.676,0.731,0.663,0.,0.
"2014-01-30",00:37,-1.44,-2.219,-1.427,-2.235,-2.573,-1.525,82.,-4.344,-1.142,246.1,304.,-61.1,-1.206,0.,249.7,0,7999.,0.000,2.853328,100.4044,4.083,5.95,4.263,5.8,90.613,3.413,5.,90.474,0.279,2.157,3.572,4.698,6.435,8.373,9.676,0.893,-999.,-999.,5.72,-10.204,-11.568,-12.502,-12.729,0.691,0.681,0.666,0.729,0.695,0.7,0.676,0.731,0.663,0.,0.
"2014-01-30",00:38,-1.388,-2.156,-1.378,-2.195,-2.573,-1.501,82.6,-4.344,-1.142,246.3,304.5,-61.4,-1.123,0.,250.,0,7999.,0.000,2.893329,100.3987,4.525,5.95,3.585,4.77,84.869,3.103,4.13,89.666,0.279,2.147,3.568,4.698,6.438,8.38,9.673,0.884,-999.,-999.,5.713,-10.206,-11.568,-12.501,-12.728,0.691,0.682,0.666,0.729,0.695,0.7,0.676,0.731,0.662,0.,0.
"2014-01-30",00:39,-1.493,-2.235,-1.436,-2.234,-2.537,-1.519,81.9,-4.327,-1.118,246.6,304.8,-61.4,-1.247,0.,250.,0,7999.,0.000,2.806669,100.4046,3.454,3.95,3.219,4.66,84.065,2.345,3.43,87.595,0.279,2.15,3.562,4.681,6.435,8.373,9.676,0.897,-999.,-999.,5.713,-10.204,-11.567,-12.5,-12.727,0.691,0.681,0.666,0.729,0.695,0.7,0.676,0.73,0.662,0.,6.667
"2014-01-30",00:40,-1.496,-2.248,-1.429,-2.244,-2.541,-1.552,82.5,-4.264,-1.094,246.6,304.5,-61.1,-1.247,0.,250.,0,7999.,0.000,2.880001,100.4023,4.004,5.325,4.192,5.86,85.868,2.839,4.06,83.669,0.279,2.147,3.572,4.695,6.438,8.373,9.676,0.89,-999.,-999.,5.716,-10.204,-11.567,-12.501,-12.726,0.691,0.682,0.666,0.729,0.695,0.7,0.675,0.731,0.663,0.,0.
"2014-01-30",00:41,-1.43,-2.192,-1.406,-2.225,-2.58,-1.528,82.,-4.27,-1.136,246.5,304.2,-60.8,-1.247,0.,250.,0,7999.,0.000,2.873337,100.4029,4.379,5.575,3.655,4.88,92.871,3.015,4.15,97.618,0.279,2.147,3.578,4.691,6.435,8.376,9.679,0.897,-999.,-999.,5.713,-10.204,-11.569,-12.5,-12.719,0.691,0.681,0.666,0.729,0.695,0.7,0.676,0.731,0.662,0.,0.
"2014-01-30",00:42,-1.522,-2.238,-1.455,-2.242,-2.586,-1.529,82.4,-4.315,-1.112,246.4,304.2,-61.0,-1.414,0.,250.1,0,7999.,0.000,2.840012,100.4076,3.454,5.388,4.469,5.75,94.263,2.575,3.76,89.167,0.279,2.14,3.562,4.681,6.435,8.373,9.679,0.884,-999.,-999.,5.71,-10.2,-11.569,-12.501,-12.718,0.692,0.682,0.666,0.73,0.695,0.7,0.676,0.731,0.662,0.,0.
"2014-01-30",00:43,-1.46,-2.212,-1.397,-2.208,-2.583,-1.505,82.1,-4.321,-1.136,246.4,304.3,-61.1,-1.331,0.,250.2,0,7999.,0.000,2.866668,100.4055,4.633,5.763,3.889,4.88,88.057,3.507,5.66,90.466,0.279,2.134,3.575,4.688,6.438,8.373,9.673,0.89,-999.,-999.,5.713,-10.2,-11.57,-12.501,-12.713,0.691,0.681,0.666,0.729,0.695,0.7,0.675,0.731,0.663,0.,0.
"2014-01-30",00:44,-1.398,-2.176,-1.397,-2.208,-2.577,-1.5,82.3,-4.332,-1.13,247.3,305.,-60.9,-1.331,0.,250.3,0,7999.,0.000,2.773339,100.4101,4.483,5.513,3.964,5.13,90.068,3.3,4.65,100.057,0.279,2.13,3.562,4.691,6.435,8.373,9.673,0.887,-999.,-999.,5.713,-10.204,-11.57,-12.5,-12.709,0.691,0.682,0.666,0.729,0.695,0.699,0.676,0.731,0.663,0.,0.
"2014-01-30",00:45,-1.381,-2.16,-1.392,-2.199,-2.518,-1.5,82.2,-4.235,-1.082,246.8,305.1,-61.5,-1.289,0.,250.3,0,7999.,0.000,2.833343,100.411,4.675,6.138,4.042,5.16,89.327,3.253,4.61,89.067,0.279,2.14,3.552,4.681,6.435,8.363,9.669,0.893,-999.,-999.,5.716,-10.202,-11.571,-12.499,-12.707,0.691,0.681,0.666,0.73,0.695,0.7,0.676,0.731,0.662,0.,33.33
"2014-01-30",00:46,-1.444,-2.192,-1.325,-2.175,-2.521,-1.46,82.2,-4.213,-1.1,246.7,304.5,-60.9,-1.247,0.,250.5,0,7999.,0.000,2.866668,100.4089,4.421,5.513,3.897,4.73,88.984,3.162,3.95,87.664,0.279,2.127,3.568,4.668,6.435,8.37,9.669,0.884,-999.,-999.,5.706,-10.202,-11.574,-12.497,-12.705,0.691,0.682,0.666,0.729,0.695,0.7,0.676,0.731,0.662,0.,100.
"2014-01-30",00:47,-1.463,-2.209,-1.316,-2.165,-2.521,-1.447,82.,-4.258,-1.13,247.6,304.9,-60.4,-1.206,0.,250.7,0,7999.,0.000,2.886671,100.4072,4.529,5.513,3.427,4.36,93.733,3.534,4.36,94.958,0.279,2.134,3.549,4.678,6.435,8.366,9.68,0.903,-999.,-999.,5.71,-10.204,-11.574,-12.499,-12.703,0.691,0.681,0.666,0.729,0.695,0.7,0.675,0.73,0.661,0.,100.
"2014-01-30",00:48,-1.417,-2.186,-1.366,-2.17,-2.521,-1.441,82.1,-4.252,-1.1,247.5,305.,-60.7,-1.247,0.,251.1,0,7999.,0.000,2.846658,100.4041,4.192,4.825,4.046,5.15,94.413,2.7,3.78,92.683,0.279,2.134,3.555,4.668,6.435,8.37,9.669,0.893,-999.,-999.,5.706,-10.204,-11.575,-12.499,-12.697,0.691,0.682,0.666,0.729,0.695,0.7,0.676,0.731,0.661,0.,100.
"2014-01-30",00:49,-1.473,-2.212,-1.403,-2.205,-2.505,-1.497,81.6,-4.218,-1.088,247.7,305.2,-60.6,-1.414,0.,251.,0,7999.,0.000,2.826673,100.4046,4.683,6.763,3.695,4.5,97.265,3.221,4.23,99.872,0.279,2.13,3.549,4.678,6.438,8.36,9.676,0.887,-999.,-999.,5.713,-10.204,-11.575,-12.5,-12.697,0.691,0.681,0.666,0.729,0.695,0.7,0.676,0.73,0.661,0.,86.7
"2014-01-30",00:50,-1.421,-2.176,-1.363,-2.203,-2.469,-1.467,82.2,-4.15,-1.088,247.7,305.5,-60.9,-1.497,0.,251.2,0,7999.,0.000,2.893329,100.4054,4.65,6.825,3.719,5.45,96.303,3.511,4.69,92.379,0.279,2.124,3.545,4.681,6.435,8.363,9.686,0.887,-999.,-999.,5.706,-10.204,-11.575,-12.497,-12.692,0.691,0.682,0.666,0.729,0.695,0.7,0.675,0.731,0.66,0.,93.3
"2014-01-30",00:51,-1.496,-2.228,-1.371,-2.191,-2.452,-1.459,81.7,-4.15,-1.094,247.6,304.7,-60.2,-1.289,0.,251.3,0,7999.,0.000,2.826673,100.4065,4.017,4.763,4.765,5.76,89.394,3.053,4.45,80.042,0.28,2.13,3.552,4.671,6.438,8.37,9.676,0.88,-999.,-999.,5.726,-10.204,-11.578,-12.496,-12.687,0.691,0.682,0.666,0.729,0.695,0.7,0.675,0.731,0.66,0.,66.67
"2014-01-30",00:52,-1.408,-2.186,-1.317,-2.168,-2.449,-1.437,82.1,-4.167,-1.1,248.3,305.4,-60.2,-1.331,0.,251.6,0,7999.,0.000,2.913338,100.4006,5.537,6.825,5.383,5.91,100.071,4.271,5.61,91.126,0.279,2.127,3.542,4.678,6.435,8.366,9.669,0.893,-999.,-999.,5.703,-10.204,-11.585,-12.495,-12.686,0.691,0.681,0.666,0.729,0.695,0.7,0.676,0.731,0.66,0.,100.
"2014-01-30",00:53,-1.398,-2.166,-1.286,-2.139,-2.426,-1.404,81.3,-4.144,-1.112,248.1,305.4,-60.3,-1.455,0.,251.7,0,7999.,0.000,2.880001,100.4029,4.367,5.138,3.657,5.08,88.402,3.288,4.15,92.462,0.28,2.13,3.535,4.684,6.435,8.369,9.679,0.887,-999.,-999.,5.696,-10.205,-11.582,-12.496,-12.673,0.691,0.681,0.666,0.729,0.695,0.7,0.676,0.731,0.66,0.,100.
"2014-01-30",00:54,-1.453,-2.192,-1.38,-2.171,-2.393,-1.431,82.3,-4.133,-1.088,248.,305.4,-60.4,-1.372,0.,251.8,0,7999.,0.000,2.846658,100.406,3.662,4.575,3.752,5.05,96.009,2.719,3.45,95.87,0.28,2.134,3.542,4.668,6.435,8.37,9.669,0.874,-999.,-999.,5.709,-10.204,-11.581,-12.496,-12.671,0.691,0.682,0.666,0.729,0.695,0.7,0.675,0.732,0.66,0.,100.
"2014-01-30",00:55,-1.519,-2.245,-1.445,-2.213,-2.364,-1.478,81.4,-4.144,-1.076,248.3,305.4,-60.2,-1.247,0.,252.1,0,7999.,0.000,2.746671,100.4063,4.412,5.388,4.039,4.92,95.615,2.907,4.76,97.89,0.28,2.127,3.532,4.674,6.435,8.373,9.679,0.89,-999.,-999.,5.71,-10.205,-11.585,-12.494,-12.667,0.691,0.682,0.666,0.73,0.695,0.7,0.676,0.731,0.66,0.,100.
"2014-01-30",00:56,-1.45,-2.215,-1.397,-2.213,-2.364,-1.492,82.5,-4.138,-1.088,248.6,305.6,-60.1,-1.123,0.,252.2,0,7999.,0.000,2.793342,100.4084,5.746,7.325,4.889,6.14,98.431,4.101,5.29,94.206,0.279,2.13,3.529,4.681,6.435,8.376,9.676,0.893,-999.,-999.,5.713,-10.205,-11.587,-12.493,-12.665,0.691,0.682,0.666,0.729,0.695,0.7,0.676,0.731,0.66,0.,100.
"2014-01-30",00:57,-1.395,-2.176,-1.323,-2.167,-2.328,-1.461,81.5,-4.087,-1.058,248.3,305.8,-60.5,-1.372,0.,252.1,0,7999.,0.000,2.826673,100.4104,5.025,6.7,3.565,4.42,91.621,3.846,4.74,96.273,0.28,2.13,3.535,4.671,6.435,8.366,9.686,0.903,-999.,-999.,5.716,-10.206,-11.589,-12.491,-12.665,0.691,0.682,0.666,0.729,0.695,0.7,0.676,0.731,0.66,0.,100.
"2014-01-30",00:58,-1.473,-2.232,-1.348,-2.162,-2.308,-1.451,82.4,-4.087,-1.082,248.1,305.1,-60.0,-1.164,0.,252.2,0,7999.,0.000,2.873337,100.4088,4.521,5.013,4.707,6.08,82.667,3.707,4.2,83.144,0.28,2.13,3.529,4.655,6.435,8.366,9.679,0.877,-999.,-999.,5.703,-10.21,-11.589,-12.491,-12.665,0.691,0.682,0.666,0.729,0.695,0.7,0.676,0.731,0.66,0.,100.
"2014-01-30",00:59,-1.522,-2.251,-1.4,-2.2,-2.351,-1.464,81.6,-4.167,-1.106,248.6,305.2,-59.7,-1.04,0.,252.2,0,7999.,0.000,2.899998,100.4087,4.633,5.2,4.847,6.19,95.599,3.171,4.68,98.085,0.28,2.127,3.532,4.674,6.435,8.36,9.682,0.893,-999.,-999.,5.709,-10.212,-11.589,-12.492,-12.66,0.691,0.682,0.666,0.729,0.695,0.699,0.675,0.731,0.66,0.,80.
"2014-01-30",01:00,-1.48,-2.238,-1.404,-2.217,-2.344,-1.478,82.2,-4.213,-1.112,248.4,305.2,-59.9,-1.247,0.,252.1,0,7999.,0.000,2.986658,100.4154,3.825,4.325,3.308,4.52,88.463,3.119,4.24,95.992,0.28,2.13,3.532,4.671,6.435,8.366,9.676,0.913,-999.,-999.,5.713,-10.213,-11.588,-12.491,-12.655,0.691,0.681,0.665,0.729,0.695,0.7,0.675,0.73,0.659,0.,80.
"2014-01-30",01:01,-1.562,-2.251,-1.438,-2.223,-2.354,-1.492,81.8,-4.241,-1.1,248.5,304.9,-59.5,-1.247,0.,252.3,0,7999.,0.000,2.933341,100.4103,3.529,3.825,3.267,4.13,92.338,2.504,3.09,95.392,0.28,2.127,3.532,4.668,6.431,8.363,9.686,0.897,-999.,-999.,5.713,-10.211,-11.584,-12.491,-12.655,0.69,0.682,0.664,0.73,0.695,0.7,0.675,0.73,0.657,0.,100.
"2014-01-30",01:02,-1.575,-2.271,-1.496,-2.25,-2.38,-1.524,82.3,-4.247,-1.1,248.5,304.8,-59.4,-1.081,0.,252.4,0,7999.,0.000,2.986658,100.409,3.796,4.2,3.312,4.12,91.082,2.251,2.87,94.475,0.28,2.127,3.522,4.654,6.435,8.366,9.673,0.9,-999.,-999.,5.706,-10.21,-11.587,-12.489,-12.651,0.69,0.681,0.665,0.731,0.695,0.699,0.674,0.731,0.659,0.,100.
"2014-01-30",01:03,-1.594,-2.284,-1.54,-2.274,-2.374,-1.566,82.1,-4.281,-1.106,248.5,304.5,-59.2,-0.998,0.,252.5,0,7999.,0.000,2.960002,100.4105,3.479,4.888,4.262,5.63,87.192,2.761,3.88,82.462,0.28,2.13,3.532,4.651,6.435,8.366,9.689,0.89,-999.,-999.,5.713,-10.212,-11.591,-12.488,-12.649,0.689,0.684,0.666,0.726,0.695,0.699,0.675,0.73,0.656,0.,93.3
"2014-01-30",01:04,-1.499,-2.241,-1.519,-2.279,-2.393,-1.57,82.7,-4.309,-1.106,249.1,304.9,-59.0,-0.998,0.,252.6,0,7999.,0.000,3.02,100.4113,4.792,5.325,4.764,5.61,89.843,3.344,4.55,94.027,0.28,2.124,3.522,4.661,6.435,8.366,9.692,0.887,-999.,-999.,5.71,-10.214,-11.592,-12.49,-12.646,0.69,0.681,0.663,0.732,0.694,0.699,0.675,0.731,0.658,0.,93.3
"2014-01-30",01:05,-1.542,-2.261,-1.533,-2.283,-2.42,-1.57,82.4,-4.298,-1.094,249.4,305.,-58.8,-1.04,0.,252.7,0,7999.,0.000,3.013343,100.4101,3.762,5.2,3.889,5.2,88.039,2.342,3.17,86.724,0.28,2.12,3.532,4.655,6.435,8.376,9.692,0.9,-999.,-999.,5.7,-10.212,-11.593,-12.489,-12.644,0.689,0.686,0.664,0.729,0.695,0.7,0.673,0.733,0.659,0.,66.67
"2014-01-30",01:06,-1.601,-2.281,-1.533,-2.282,-2.41,-1.58,82.6,-4.235,-1.064,249.3,305.5,-59.4,-1.123,0.,252.8,0,7999.,0.000,3.039998,100.4142,3.846,4.825,4.039,4.9,100.118,2.749,3.75,98.858,0.28,2.13,3.522,4.661,6.431,8.373,9.696,0.897,-999.,-999.,5.709,-10.214,-11.591,-12.489,-12.641,0.69,0.682,0.663,0.731,0.695,0.699,0.674,0.733,0.658,0.,93.3
"2014-01-30",01:07,-1.604,-2.3,-1.531,-2.282,-2.387,-1.593,82.8,-4.156,-1.07,249.7,305.5,-58.9,-1.289,0.,253.,0,7999.,0.000,3.060001,100.4162,4.067,5.013,3.886,5.26,88.806,2.87,4.17,94.337,0.28,2.13,3.525,4.658,6.435,8.376,9.692,0.897,-999.,-999.,5.703,-10.213,-11.591,-12.489,-12.634,0.689,0.682,0.665,0.729,0.694,0.701,0.675,0.73,0.658,0.,80.
"2014-01-30",01:08,-1.483,-2.228,-1.443,-2.266,-2.371,-1.565,82.5,-4.139,-1.052,250.,305.5,-58.6,-1.206,0.,253.4,0,7999.,0.000,3.086668,100.4172,4.629,6.138,4.767,6.15,102.923,3.949,5.3,97.504,0.28,2.124,3.529,4.654,6.435,8.373,9.685,0.897,-999.,-999.,5.713,-10.214,-11.593,-12.488,-12.63,0.69,0.68,0.665,0.727,0.695,0.701,0.675,0.731,0.659,0.,80.
"2014-01-30",01:09,-1.395,-2.176,-1.368,-2.209,-2.38,-1.505,83.1,-4.104,-1.07,250.,305.2,-58.2,-1.04,0.,253.6,0,7999.,0.000,3.106672,100.417,4.825,6.013,3.866,5.14,93.072,3.512,4.35,92.93,0.28,2.124,3.539,4.661,6.435,8.373,9.696,0.903,-999.,-999.,5.716,-10.214,-11.596,-12.486,-12.628,0.689,0.686,0.663,0.732,0.692,0.706,0.674,0.731,0.659,0.,100.